TimeCST,TemperatureF,Dew PointF,Humidity,Sea Level PressureIn,VisibilityMPH,Wind Direction,Wind SpeedMPH,Gust SpeedMPH,PrecipitationIn,Events,Conditions,WindDirDegrees,DateUTC
12:15 AM,15.8,12.2,86,30.42,10.0,Calm,Calm,-,N/A,,Clear,0,2013-01-15 06:15:00
12:35 AM,15.8,12.2,86,30.42,10.0,Calm,Calm,-,N/A,,Clear,0,2013-01-15 06:35:00
12:55 AM,15.8,14.0,93,30.42,10.0,Calm,Calm,-,N/A,,Clear,0,2013-01-15 06:55:00
1:15 AM,14.0,12.2,93,30.41,10.0,Calm,Calm,-,N/A,,Clear,0,2013-01-15 07:15:00
1:35 AM,14.0,12.2,93,30.41,10.0,Calm,Calm,-,N/A,,Clear,0,2013-01-15 07:35:00
1:55 AM,14.0,12.2,93,30.42,10.0,Calm,Calm,-,N/A,,Clear,0,2013-01-15 07:55:00
2:15 AM,15.8,12.2,86,30.41,10.0,Calm,Calm,-,N/A,,Clear,0,2013-01-15 08:15:00
2:35 AM,15.8,14.0,93,30.41,10.0,Calm,Calm,-,N/A,,Clear,0,2013-01-15 08:35:00
2:55 AM,15.8,12.2,86,30.41,10.0,Calm,Calm,-,N/A,,Clear,0,2013-01-15 08:55:00
3:15 AM,15.8,12.2,86,30.41,10.0,Calm,Calm,-,N/A,,Clear,0,2013-01-15 09:15:00
3:35 AM,14.0,12.2,93,30.41,10.0,Calm,Calm,-,N/A,,Clear,0,2013-01-15 09:35:00
3:55 AM,14.0,12.2,93,30.40,10.0,Calm,Calm,-,N/A,,Clear,0,2013-01-15 09:55:00
4:15 AM,14.0,12.2,93,30.40,10.0,Calm,Calm,-,N/A,,Clear,0,2013-01-15 10:15:00
4:35 AM,14.0,12.2,93,30.39,10.0,Calm,Calm,-,N/A,,Clear,0,2013-01-15 10:35:00
4:55 AM,14.0,12.2,93,30.39,10.0,Calm,Calm,-,N/A,,Clear,0,2013-01-15 10:55:00
5:15 AM,14.0,12.2,93,30.39,10.0,Calm,Calm,-,N/A,,Clear,0,2013-01-15 11:15:00
5:35 AM,14.0,12.2,93,30.39,10.0,Calm,Calm,-,N/A,,Clear,0,2013-01-15 11:35:00
5:55 AM,12.2,10.4,92,30.39,10.0,Calm,Calm,-,N/A,,Scattered Clouds,0,2013-01-15 11:55:00
6:15 AM,14.0,12.2,93,30.39,10.0,Calm,Calm,-,N/A,,Clear,0,2013-01-15 12:15:00
6:35 AM,12.2,10.4,92,30.39,10.0,Calm,Calm,-,N/A,,Scattered Clouds,0,2013-01-15 12:35:00
6:55 AM,12.2,10.4,92,30.40,10.0,Calm,Calm,-,N/A,,Scattered Clouds,0,2013-01-15 12:55:00
7:15 AM,12.2,10.4,92,30.40,7.0,Calm,Calm,-,N/A,,Scattered Clouds,0,2013-01-15 13:15:00
7:35 AM,14.0,10.4,86,30.40,10.0,Calm,Calm,-,N/A,,Scattered Clouds,0,2013-01-15 13:35:00
7:55 AM,14.0,12.2,93,30.40,10.0,Calm,Calm,-,N/A,,Scattered Clouds,0,2013-01-15 13:55:00
8:15 AM,15.8,14.0,93,30.40,10.0,Calm,Calm,-,N/A,,Scattered Clouds,0,2013-01-15 14:15:00
8:35 AM,17.6,15.8,93,30.41,10.0,Calm,Calm,-,N/A,,Scattered Clouds,0,2013-01-15 14:35:00
8:55 AM,23.0,19.4,86,30.41,10.0,Calm,Calm,-,N/A,,Clear,0,2013-01-15 14:55:00
9:15 AM,24.8,21.2,86,30.41,10.0,Calm,Calm,-,N/A,,Clear,0,2013-01-15 15:15:00
9:35 AM,26.6,21.2,80,30.42,10.0,Calm,Calm,-,N/A,,Clear,0,2013-01-15 15:35:00
9:55 AM,28.4,21.2,74,30.42,10.0,Calm,Calm,-,N/A,,Clear,0,2013-01-15 15:55:00
10:15 AM,30.2,21.2,69,30.42,10.0,SE,4.6,-,N/A,,Clear,140,2013-01-15 16:15:00
10:35 AM,30.2,19.4,64,30.39,10.0,East,3.5,-,N/A,,Scattered Clouds,80,2013-01-15 16:35:00
10:55 AM,30.2,19.4,64,30.37,10.0,Calm,Calm,-,N/A,,Mostly Cloudy,0,2013-01-15 16:55:00
11:15 AM,30.2,19.4,64,30.36,10.0,SE,3.5,-,N/A,,Mostly Cloudy,130,2013-01-15 17:15:00
11:35 AM,30.2,21.2,69,30.35,10.0,Calm,Calm,-,N/A,,Overcast,0,2013-01-15 17:35:00
11:55 AM,32.0,19.4,60,30.35,10.0,SE,3.5,-,N/A,,Mostly Cloudy,130,2013-01-15 17:55:00
12:15 PM,30.2,19.4,64,30.34,10.0,Calm,Calm,-,N/A,,Mostly Cloudy,0,2013-01-15 18:15:00
12:35 PM,30.2,19.4,64,30.32,10.0,East,4.6,-,N/A,,Scattered Clouds,80,2013-01-15 18:35:00
12:55 PM,30.2,17.6,60,30.31,10.0,Calm,Calm,-,N/A,,Clear,0,2013-01-15 18:55:00
1:35 PM,30.2,17.6,60,30.30,10.0,Calm,Calm,-,N/A,,Clear,0,2013-01-15 19:35:00
1:55 PM,30.2,17.6,60,30.29,10.0,East,4.6,-,N/A,,Clear,90,2013-01-15 19:55:00
2:15 PM,30.2,19.4,64,30.29,10.0,SE,3.5,-,N/A,,Clear,140,2013-01-15 20:15:00
2:35 PM,30.2,17.6,60,30.29,10.0,Calm,Calm,-,N/A,,Clear,0,2013-01-15 20:35:00
2:55 PM,30.2,17.6,60,30.28,10.0,Calm,Calm,-,N/A,,Clear,0,2013-01-15 20:55:00
3:15 PM,30.2,17.6,60,30.28,10.0,Calm,Calm,-,N/A,,Clear,0,2013-01-15 21:15:00
3:35 PM,30.2,17.6,60,30.29,10.0,Calm,Calm,-,N/A,,Clear,0,2013-01-15 21:35:00
3:55 PM,30.2,17.6,60,30.30,10.0,Calm,Calm,-,N/A,,Clear,0,2013-01-15 21:55:00
4:15 PM,30.2,17.6,60,30.30,10.0,South,4.6,-,N/A,,Clear,170,2013-01-15 22:15:00
4:35 PM,30.2,17.6,60,30.28,10.0,South,4.6,-,N/A,,Clear,170,2013-01-15 22:35:00
4:55 PM,28.4,19.4,69,30.28,10.0,South,3.5,-,N/A,,Clear,180,2013-01-15 22:55:00
5:15 PM,28.4,17.6,64,30.29,10.0,Calm,Calm,-,N/A,,Clear,0,2013-01-15 23:15:00
5:35 PM,28.4,19.4,69,30.28,10.0,Calm,Calm,-,N/A,,Clear,0,2013-01-15 23:35:00
5:55 PM,28.4,19.4,69,30.27,10.0,Calm,Calm,-,N/A,,Clear,0,2013-01-15 23:55:00
6:15 PM,26.6,19.4,74,30.26,10.0,Calm,Calm,-,N/A,,Clear,0,2013-01-16 00:15:00
6:35 PM,26.6,19.4,74,30.25,10.0,Calm,Calm,-,N/A,,Clear,0,2013-01-16 00:35:00
6:55 PM,24.8,19.4,80,30.23,10.0,Calm,Calm,-,N/A,,Clear,0,2013-01-16 00:55:00
7:15 PM,23.0,19.4,86,30.22,10.0,Calm,Calm,-,N/A,,Clear,0,2013-01-16 01:15:00
7:35 PM,23.0,19.4,86,30.21,10.0,Calm,Calm,-,N/A,,Clear,0,2013-01-16 01:35:00
7:55 PM,23.0,19.4,86,30.21,10.0,Calm,Calm,-,N/A,,Clear,0,2013-01-16 01:55:00
8:15 PM,23.0,19.4,86,30.20,10.0,Calm,Calm,-,N/A,,Clear,0,2013-01-16 02:15:00
8:35 PM,21.2,19.4,93,30.19,10.0,Calm,Calm,-,N/A,,Clear,0,2013-01-16 02:35:00
8:55 PM,21.2,19.4,93,30.19,10.0,Calm,Calm,-,N/A,,Clear,0,2013-01-16 02:55:00
9:15 PM,21.2,19.4,93,30.18,10.0,Calm,Calm,-,N/A,,Clear,0,2013-01-16 03:15:00
9:35 PM,21.2,19.4,93,30.17,10.0,Calm,Calm,-,N/A,,Clear,0,2013-01-16 03:35:00
9:55 PM,21.2,19.4,93,30.18,7.0,Calm,Calm,-,N/A,,Clear,0,2013-01-16 03:55:00
10:15 PM,19.4,19.4,100,30.16,7.0,Calm,Calm,-,N/A,,Clear,0,2013-01-16 04:15:00
10:35 PM,19.4,17.6,93,30.16,7.0,Calm,Calm,-,N/A,,Clear,0,2013-01-16 04:35:00
10:55 PM,19.4,17.6,93,30.14,7.0,Calm,Calm,-,N/A,,Clear,0,2013-01-16 04:55:00
11:15 PM,19.4,17.6,93,30.13,7.0,Calm,Calm,-,N/A,,Clear,0,2013-01-16 05:15:00
11:35 PM,17.6,17.6,100,30.12,7.0,Calm,Calm,-,N/A,,Clear,0,2013-01-16 05:35:00
11:55 PM,17.6,17.6,100,30.12,7.0,Calm,Calm,-,N/A,,Clear,0,2013-01-16 05:55:00